Regional Weather Roundup
Issued by NWS

Home | Current Version | Previous Version | Text Only | Print | Product List | Glossary On
Versions: 1 2 3 4 5 6 7 8 9 10 11 12 13 14 15 16 17 18 19 20 21 22 23 24 25 26 27 28 29 30 31 32 33 34 35 36 37 38 39 40 41 42 43 44 45 46 47 48 49 50
895
ASUS45 KTFX 110910
RWRMT
MONTANA REGIONAL WEATHER ROUNDUP
NATIONAL WEATHER SERVICE GREAT FALLS MT
200 AM MST THU FEB 11 2016

NOTE: "FAIR" INDICATES FEW OR NO CLOUDS BELOW 12000 FEET WITH NO
SIGNIFICANT WEATHER AND/OR OBSTRUCTIONS TO VISIBILITY.

MTZ001>007-043-111000-
WEST OF THE DIVIDE

CITY           SKY/WX    TMP DP  RH WIND       PRES   REMARKS
KALISPELL      CLOUDY    30  28  92 N3        30.19S
MISSOULA       CLOUDY    34  31  88 NW5       30.24F
BUTTE          CLOUDY    27  20  75 NW5       30.21S
MULLAN PASS    CLOUDY    32  30  92 VRB6      30.22F WCI  26
ANACONDA         N/A     45  23  42 SE8       30.18F
DEER LODGE       N/A     37  27  65 NE5       30.18S
HAMILTON         N/A     48  28  46 SE6       30.23F
PLAINS           N/A     35  30  82 CALM      30.22R
THOMPSON FALLS   N/A     32  30  92 CALM      30.27
$$

MTZ008-052>055-111000-
SOUTHWEST MONTANA

CITY           SKY/WX    TMP DP  RH WIND       PRES   REMARKS
BOZEMAN        CLOUDY    32  28  85 CALM      30.18S
DILLON         CLOUDY    34  26  72 SW18      30.24R WCI  23
ENNIS          CLEAR     37  25  60 S20G28    30.27S WCI  27
THREE FORKS      N/A     32  32 100 CALM      30.14S
TWIN BRIDGES     N/A     39  23  53 E8        30.18S
$$

MTZ009-010-012-014-046-048-049-054-111000-
EAST SLOPES AND CENTRAL MONTANA

CITY           SKY/WX    TMP DP  RH WIND       PRES   REMARKS
CUT BANK       CLEAR     41  28  60 W20       30.02F
GREAT FALLS    CLOUDY    48  28  46 W15       30.05R
MALMSTROM AFB  CLOUDY    48  29  47 W2        30.06R
HELENA         PTCLDY    34  27  75 VRB3      30.13F
CHOTEAU          N/A     48  27  43 W14G22    30.07R
CONRAD           N/A     45  31  58 W10       30.07S
$$

MTZ011-013-016-021-045-047-050-051-111000-
NORTH CENTRAL MONTANA

CITY           SKY/WX    TMP DP  RH WIND       PRES   REMARKS
HAVRE          CLOUDY    29  28  96 W6        29.98R WCI  23
LEWISTOWN      PTCLDY    46  29  51 W17       30.00S
N BAR RANCH      N/A     48  25  40 W21G26    29.99R
CHINOOK          N/A     32  30  93 E6        29.98S WCI  26
$$

MTZ017>020-022>027-061-062-111000-
NORTHEAST MONTANA

CITY           SKY/WX    TMP DP  RH WIND       PRES   REMARKS
GLASGOW        CLOUDY    30  25  81 E10       30.03R WCI  21
JORDAN           N/A     32  31  96 E6        29.98F WCI  26
SIDNEY         CLOUDY    30  25  80 E3        30.08F
WOLF POINT     LGT SNOW  30  25  81 E9        30.06F WCI  22
PLENTYWOOD       N/A     25  21  86 E5        30.07F
POPLAR           N/A     27  23  86 E9        30.06F VSB 3/4 WCI  17
SCOBEY           N/A     24  17  74 N6        30.02F WCI  17
$$

MTZ028>42-056>058-111000-
SOUTHCENTRAL AND SOUTHEAST MONTANA

CITY           SKY/WX    TMP DP  RH WIND       PRES   REMARKS
BAKER          CLOUDY    32  27  81 SE7       30.03F WCI  26
BILLINGS       CLOUDY    48  23  37 SW13      30.02F
LIVINGSTON     CLOUDY    49  21  33 SW25G31   30.13S
MILES CITY     CLOUDY    32  29  88 NE5       29.99F
EKALAKA          N/A     31  27  85 SE9       29.97F WCI  23
FORSYTH          N/A     32  30  93 E6        29.99S WCI  26
LAUREL           N/A     43  19  38 W1        30.01F
ROUNDUP          N/A     51  23  33 W18       29.90R
$$

REGIONAL REPORTS...DAKOTAS

CITY           SKY/WX    TMP DP  RH WIND       PRES   REMARKS
WILLISTON      CLOUDY    26  22  84 S3        30.10F
MINOT          CLOUDY    15   6  67 CALM      30.15F
DICKINSON      CLOUDY    25  21  85 E7        30.04S WCI  17
BEACH          CLOUDY    28  28 100 CALM      30.07S
CROSBY         LGT SNOW  18  18 100 E6        30.13F WCI   9
TIOGA          MOCLDY    18  18 100 SE5       30.13F
WATFORD CITY   MOCLDY    23  19  86 SE5       30.10S
BISMARCK       CLOUDY    18  12  77 SE5       30.19S
GRAND FORKS    CLOUDY     2  -4  76 CALM      30.28F
FARGO          PTCLDY     1  -5  75 CALM      30.28S
BUFFALO SD       N/A     31  28  89 S9        29.98F WCI  23
RAPID CITY     MOCLDY    26  24  92 S9        30.06F WCI  17
$$

REGIONAL REPORTS...WYOMING/IDAHO/WASHINGTON

CITY           SKY/WX    TMP DP  RH WIND       PRES   REMARKS
GILLETTE       CLOUDY    42  24  49 SW18      30.02F
SHERIDAN       CLOUDY    36  26  67 SW3       30.01F
BUFFALO WY     CLOUDY    42  22  44 SW3       30.04F
CODY           CLOUDY    48  16  27 E3        30.09F
YELLOWSTONE LA   N/A     23  18  81 CALM      30.34S
IDAHO FALLS    CLOUDY    13  10  88 NE5       30.41S
SALMON         CLOUDY    16  14  93 CALM      30.39R
BOISE          CLEAR     30  28  92 CALM      30.41S FOG
SPOKANE        CLOUDY    34  33  96 S3        30.28S
$$

REGIONAL REPORTS...ALBERTA

CITY           SKY/WX    TMP DP  RH WIND       PRES   REMARKS
EDMONTON       LGT SNOW  21  18  86 E8        30.05S WCI  12
CALGARY        FOG       30  30 100 NW5       29.98R VSB 1
LETHBRIDGE     CLEAR     32  28  86 NW15      29.97R WCI  22
MEDICINE HAT   FLURRIES  32  32 100 NE3       29.97S
WATERTON GATE    N/A     45  25  45 W21G35      N/A
MILK RIVER       N/A     39  30  70 W17         N/A  WCI  30
ONEFOUR          N/A     30  28  93 E5          N/A
$$

REGIONAL REPORTS...SASKATCHEWAN

CITY           SKY/WX    TMP DP  RH WIND       PRES   REMARKS
SWIFT CURRENT  LGT SNOW  21  21 100 E14       29.99F WCI   8
REGINA         CLOUDY    16  12  86 E5        30.13S
SASKATOON      CLOUDY    10   7  85 NE9       30.19F WCI  -2
CYPRESS HILLS    N/A     27  25  93 S5          N/A
VAL MARIE        N/A     28  27  93 SE7         N/A  WCI  21
ROCKGLEN         N/A     23  21  93 E5          N/A
ASSINIBOIA       N/A     19  16  86 E7          N/A  WCI  10
$$




USA.gov is the U.S. government's official web portal to all federal, state and local government web resources and services.